• In Deutschland
  • Länderverzeichnis
  • Für 7 Tage
  • Wassertemperatur
  • Satellitenkarten
  • Wetterkarte
  • Widgets
  • user-avatar
    Anmelden

    Stündliche Wetter Vanadzor

    Heute, 20 September, Mittwoch

    Zeit Temperatur Niederschläge Wind Luftdruck Luftfeuchtigkeit
    00:00 +15°C° 0,3 mm 2 m/S 639 mmHg 71%
    01:00 +15°C° 0,1 mm 1 m/S 639 mmHg 71%
    02:00 +15°C° 0,1 mm 1 m/S 639 mmHg 72%
    03:00 +15°C° 0 mm 1 m/S 638 mmHg 66%
    04:00 +15°C° 0,1 mm 1 m/S 638 mmHg 67%
    05:00 +14°C° 0,1 mm 1 m/S 638 mmHg 67%
    06:00 +14°C° 0,1 mm 1 m/S 638 mmHg 67%
    07:00 +18°C° 0 mm 1 m/S 639 mmHg 58%
    08:00 +20°C° 0 mm 1 m/S 640 mmHg 48%
    09:00 +23°C° 0 mm 1 m/S 641 mmHg 37%
    10:00 +24°C° 0 mm 2 m/S 641 mmHg 34%
    11:00 +26°C° 0 mm 2 m/S 641 mmHg 31%
    12:00 +27°C° 0 mm 2 m/S 641 mmHg 27%
    13:00 +27°C° 0 mm 2 m/S 641 mmHg 27%
    14:00 +28°C° 0 mm 2 m/S 641 mmHg 27%
    15:00 +28°C° 0 mm 2 m/S 640 mmHg 27%
    16:00 +25°C° 0,1 mm 2 m/S 640 mmHg 34%
    17:00 +23°C° 0,1 mm 1 m/S 639 mmHg 41%
    18:00 +21°C° 0,1 mm 1 m/S 638 mmHg 49%
    19:00 +20°C° 0,1 mm 1 m/S 638 mmHg 54%
    20:00 +18°C° 0,1 mm 2 m/S 638 mmHg 59%
    21:00 +17°C° 0,1 mm 2 m/S 638 mmHg 64%
    22:00 +16°C° 0 mm 2 m/S 638 mmHg 66%
    23:00 +16°C° 0 mm 2 m/S 638 mmHg 68%

    Morgen, 21 September, Donnerstag

    Zeit Temperatur Niederschläge Wind Luftdruck Luftfeuchtigkeit
    00:00 +16°C° 0 mm 2 m/S 638 mmHg 69%
    01:00 +16°C° 0 mm 1 m/S 638 mmHg 69%
    02:00 +15°C° 0 mm 1 m/S 638 mmHg 70%
    03:00 +15°C° 0 mm 1 m/S 638 mmHg 70%
    04:00 +15°C° 0 mm 1 m/S 638 mmHg 69%
    05:00 +15°C° 0 mm 1 m/S 637 mmHg 68%
    06:00 +14°C° 0 mm 1 m/S 637 mmHg 67%
    07:00 +18°C° 0 mm 1 m/S 638 mmHg 57%
    08:00 +21°C° 0 mm 1 m/S 639 mmHg 46%
    09:00 +24°C° 0 mm 1 m/S 640 mmHg 36%
    10:00 +25°C° 0 mm 2 m/S 640 mmHg 33%
    11:00 +26°C° 0 mm 2 m/S 640 mmHg 30%
    12:00 +28°C° 0 mm 2 m/S 640 mmHg 27%
    13:00 +28°C° 0 mm 2 m/S 640 mmHg 27%
    14:00 +28°C° 0 mm 2 m/S 639 mmHg 28%
    15:00 +28°C° 0 mm 2 m/S 639 mmHg 28%
    16:00 +26°C° 0,1 mm 2 m/S 638 mmHg 36%
    17:00 +23°C° 0,1 mm 2 m/S 637 mmHg 43%
    18:00 +21°C° 0,1 mm 1 m/S 637 mmHg 51%
    19:00 +19°C° 0,1 mm 2 m/S 637 mmHg 56%
    20:00 +18°C° 0,1 mm 2 m/S 637 mmHg 62%
    21:00 +18°C° 0,1 mm 2 m/S 637 mmHg 67%
    22:00 +17°C° 0 mm 2 m/S 637 mmHg 71%
    23:00 +16°C° 0 mm 2 m/S 637 mmHg 74%

    übermorgen, 22 September, Freitag

    Zeit Temperatur Niederschläge Wind Luftdruck Luftfeuchtigkeit
    00:00 +15°C° 0 mm 1 m/S 637 mmHg 77%
    01:00 +15°C° 0 mm 1 m/S 636 mmHg 78%
    02:00 +14°C° 0 mm 1 m/S 636 mmHg 80%
    03:00 +14°C° 0 mm 1 m/S 636 mmHg 81%
    04:00 +14°C° 0 mm 1 m/S 636 mmHg 81%
    05:00 +13°C° 0 mm 1 m/S 636 mmHg 81%
    06:00 +13°C° 0 mm 1 m/S 636 mmHg 81%
    07:00 +16°C° 0 mm 1 m/S 636 mmHg 68%
    08:00 +20°C° 0 mm 1 m/S 637 mmHg 55%
    09:00 +21°C° 0 mm 2 m/S 638 mmHg 42%
    10:00 +24°C° 0 mm 2 m/S 638 mmHg 38%
    11:00 +25°C° 0 mm 2 m/S 638 mmHg 33%
    12:00 +27°C° 0 mm 3 m/S 638 mmHg 29%
    13:00 +27°C° 0 mm 3 m/S 638 mmHg 29%
    14:00 +27°C° 0 mm 3 m/S 637 mmHg 29%
    15:00 +27°C° 0 mm 3 m/S 637 mmHg 29%
    16:00 +25°C° 0 mm 2 m/S 636 mmHg 36%
    17:00 +21°C° 0 mm 2 m/S 636 mmHg 43%
    18:00 +20°C° 0 mm 1 m/S 635 mmHg 51%
    19:00 +18°C° 0 mm 2 m/S 635 mmHg 56%
    20:00 +17°C° 0 mm 2 m/S 636 mmHg 62%
    21:00 +16°C° 0 mm 2 m/S 636 mmHg 68%
    22:00 +15°C° 0 mm 2 m/S 636 mmHg 69%
    23:00 +15°C° 0 mm 2 m/S 636 mmHg 69%

    23 September, Samstag

    Zeit Temperatur Niederschläge Wind Luftdruck Luftfeuchtigkeit
    00:00 +15°C° 0 mm 2 m/S 636 mmHg 70%
    01:00 +14°C° 0 mm 2 m/S 636 mmHg 69%
    02:00 +14°C° 0 mm 2 m/S 636 mmHg 68%
    03:00 +13°C° 0 mm 2 m/S 636 mmHg 68%
    04:00 +13°C° 0 mm 2 m/S 636 mmHg 67%
    05:00 +13°C° 0 mm 1 m/S 636 mmHg 66%
    06:00 +13°C° 0 mm 1 m/S 636 mmHg 65%
    07:00 +16°C° 0 mm 1 m/S 637 mmHg 58%
    08:00 +19°C° 0 mm 1 m/S 638 mmHg 50%
    09:00 +21°C° 0 mm 1 m/S 639 mmHg 43%
    10:00 +23°C° 0,1 mm 2 m/S 639 mmHg 40%
    11:00 +24°C° 0,1 mm 2 m/S 639 mmHg 37%
    12:00 +25°C° 0,1 mm 2 m/S 639 mmHg 34%
    13:00 +25°C° 0,2 mm 2 m/S 639 mmHg 34%
    14:00 +25°C° 0,2 mm 2 m/S 639 mmHg 34%
    15:00 +25°C° 0,2 mm 3 m/S 639 mmHg 35%
    16:00 +23°C° 0,2 mm 2 m/S 638 mmHg 42%
    17:00 +20°C° 0,2 mm 2 m/S 638 mmHg 49%
    18:00 +17°C° 0,2 mm 2 m/S 638 mmHg 57%
    19:00 +16°C° 0 mm 2 m/S 638 mmHg 61%
    20:00 +15°C° 0 mm 2 m/S 638 mmHg 66%
    21:00 +14°C° 0 mm 2 m/S 638 mmHg 71%
    22:00 +14°C° 0 mm 2 m/S 638 mmHg 71%
    23:00 +14°C° 0 mm 2 m/S 638 mmHg 71%

    24 September, Sonntag

    Zeit Temperatur Niederschläge Wind Luftdruck Luftfeuchtigkeit
    00:00 +13°C° 0 mm 2 m/S 638 mmHg 71%
    01:00 +13°C° 0 mm 2 m/S 638 mmHg 72%
    02:00 +12°C° 0 mm 2 m/S 638 mmHg 73%
    03:00 +12°C° 0 mm 2 m/S 638 mmHg 74%
    04:00 +12°C° 0 mm 2 m/S 638 mmHg 75%
    05:00 +10°C° 0 mm 2 m/S 638 mmHg 75%
    06:00 +10°C° 0 mm 2 m/S 638 mmHg 75%
    07:00 +14°C° 0 mm 2 m/S 639 mmHg 65%
    08:00 +16°C° 0 mm 2 m/S 640 mmHg 56%
    09:00 +19°C° 0 mm 2 m/S 641 mmHg 47%
    10:00 +20°C° 0 mm 2 m/S 641 mmHg 43%
    11:00 +23°C° 0 mm 2 m/S 641 mmHg 39%
    12:00 +24°C° 0 mm 3 m/S 641 mmHg 36%
    13:00 +24°C° 0 mm 3 m/S 641 mmHg 36%
    14:00 +24°C° 0 mm 3 m/S 640 mmHg 35%
    15:00 +24°C° 0 mm 3 m/S 640 mmHg 35%
    16:00 +21°C° 0,1 mm 2 m/S 640 mmHg 43%
    17:00 +19°C° 0,1 mm 2 m/S 639 mmHg 50%
    18:00 +17°C° 0,1 mm 2 m/S 639 mmHg 57%
    19:00 +16°C° 0 mm 2 m/S 639 mmHg 61%
    20:00 +15°C° 0 mm 2 m/S 639 mmHg 65%
    21:00 +14°C° 0 mm 2 m/S 639 mmHg 69%
    22:00 +13°C° 0 mm 2 m/S 639 mmHg 69%
    23:00 +13°C° 0 mm 2 m/S 639 mmHg 69%

    25 September, Montag

    Zeit Temperatur Niederschläge Wind Luftdruck Luftfeuchtigkeit
    00:00 +12°C° 0 mm 2 m/S 639 mmHg 69%
    01:00 +12°C° 0 mm 2 m/S 639 mmHg 68%
    02:00 +10°C° 0 mm 2 m/S 639 mmHg 67%
    03:00 +10°C° 0 mm 2 m/S 639 mmHg 66%
    04:00 +10°C° 0 mm 2 m/S 639 mmHg 64%
    05:00 +10°C° 0 mm 2 m/S 639 mmHg 63%
    06:00 +9°C° 0 mm 2 m/S 639 mmHg 62%
    07:00 +13°C° 0 mm 2 m/S 640 mmHg 55%
    08:00 +15°C° 0 mm 2 m/S 641 mmHg 48%
    09:00 +18°C° 0 mm 2 m/S 642 mmHg 41%
    10:00 +19°C° 0 mm 2 m/S 642 mmHg 38%
    11:00 +20°C° 0 mm 2 m/S 642 mmHg 36%
    12:00 +22°C° 0 mm 3 m/S 642 mmHg 33%
    13:00 +22°C° 0 mm 3 m/S 642 mmHg 33%
    14:00 +22°C° 0 mm 3 m/S 641 mmHg 33%
    15:00 +22°C° 0 mm 3 m/S 641 mmHg 33%
    16:00 +20°C° 0 mm 2 m/S 641 mmHg 40%
    17:00 +18°C° 0 mm 2 m/S 640 mmHg 48%
    18:00 +16°C° 0 mm 2 m/S 640 mmHg 55%
    19:00 +15°C° 0 mm 2 m/S 640 mmHg 60%
    20:00 +14°C° 0 mm 2 m/S 640 mmHg 64%
    21:00 +13°C° 0 mm 2 m/S 640 mmHg 69%
    22:00 +12°C° 0 mm 2 m/S 640 mmHg 72%
    23:00 +12°C° 0 mm 2 m/S 640 mmHg 75%
    Mehr zeigen